{"data":{"norad_id":64384,"intl_designator":"2025-127Q","name":"STARLINK-34271","alt_names":[],"object_type":"PAYLOAD","status":"ACTIVE","operator":null,"country":"US","launch_date":"2025-06-13","launch_site_code":"AFETR","launch_vehicle":null,"mission":null,"orbit_class":"UNKNOWN","rcs_meters":null,"size_class":null,"mass_kg":null,"dimensions":null,"purposes":["comms"],"wikipedia_slug":null,"has_3d_model":false,"image_url":null,"decayed_at":null,"tle_current":{"epoch":"2026-09-20T09:43:52.849056Z","epoch_age_seconds":142426,"freshness":"FRESH","line1":"1 64384U 25127Q   26263.40547279  .00008411  00000+0  31474-3 0  9994","line2":"2 64384  43.0025 160.3560 0001342 269.0744  90.9954 15.27589128 72243","mean_motion":15.27589128,"eccentricity":0.0001342,"inclination_deg":43.0025,"raan_deg":160.356,"arg_perigee_deg":269.0744,"mean_anomaly_deg":90.9954,"bstar":0.00031474,"rev_number":7224,"period_min":94.266185429411,"perigee_km":482.10099615389,"apogee_km":483.94253116606,"semimajor_km":6861.15876366,"source":"CELESTRAK","updated_at":"2026-09-21T09:00:35.324807Z"}}}